SCP
0 0 0 0 0 0 0 0 0 0 0 0 0 0 0 0 0 0 0 0 0 0 0 0 0 0 0 0 0 0 0 0 0 0 0 0 0 0 0 0 0 0 0
0 0 0 0 0 0 0 0 0 0 0 0 0 0 0 0 0 0 0 0 0 0 0 0 0 0 0 0 0 0 0 0 0 0 0 0 0 0 0 0 0 0 0
0 0 0 0 0 0 0 0 0 0 0 0 0 0 0 0 0 0 0 0 0 0 0 0 0 0 0 0 0 0 0 0 0 0 0 0 0 0 0 0 0 0 0
0 0 0 0 0 0 0 0 0 0 0 0 0 0 0 0 0 0 0 0 0 0 0 0 0 0 0 0 0 0 0 0 0 0 0 0 0 0 0 0 0 0 0
0 0 0 0 0 0 0 0 0 0 0 0 0 0 0 0 0 0 0 0 0 0 0 0 0 0 0 0 0 0 0 0 0 0 0 0 0 0 0 0 0 0 0
0 0 0 0 0 0 0 0 0 0 0 0 0 0 0 0 0 0 0 0 0 0 0 0 0 0 0 0 0 0 0 0 0 0 0 0 0 0 0 0 0 0 0
0 0 0 0 0 0 0 0 0 0 0 0 0 0 0 0 0 0 0 0 0 0 0 0 0 0 0 0 0 0 0 0 0 0 0 0 0 0 0 0 0 0 0
0 0 0 0 0 0 0 0 0 0 0 0 0 0 0 0 0 0 0 0 0 0 0 0 0 0 0 0 0 0 0 0 0 0 0 0 0 0 0 0 0 0 0
0 0 0 0 0 0 0 0 0 0 0 0 0 0 0 0 0 0 0 0 0 0 0 0 0 0 0 0 0 0 0 0 0 0 0 0 0 0 0 0 0 0 0
0 0 0 0 0 0 0 0 0 0 0 0 0 0 0 0 0 0 0 0 0 0 0 0 0 0 0 0 0 0 0 0 0 0 0 0 0 0 0 0 0 0 0
0 0 0 0 0 0 0 0 0 0 0 0 0 0 0 0 0 0 0 0 0 0 0 0 0 0 0 0 0 0 0 0 0 0 0 0 0 0 0 0 0 0 0
0 0 0 0 0 0 0 0 0 0 0 0 0 0 0 0 0 0 0 0 0 0 0 0 0 0 0 0 0 0 0 0 0 0 0 0 0 0 0 0 0 0 0
0 0 0 0 0 0 0 0 0 0 0 0 0 0 0 0 0 0 0 0 0 0 0 0 0 0 0 0 0 0 0 0 0 0 0 0 0 0 0 0 0 0 0
0 0 0 0 0 0 0 0 0 0 0 0 0 0 0 0 0 0 0 0 0 0 0 0 0 0 0 0 0 0 0 0 0 0 0 0 0 0 0 0 0 0 0
0 0 0 0 0 0 0 0 0 0 0 0 0 0 0 0 0 0 0 0 0 0 0 0 0 0 0 0 0 0 0 0 0 0 0 0 0 0 0 0 0 0 0
0 0 0 0 0 0 0 0 0 0 0 0 0 0 0 0 0 0 0 0 0 0 0 0 0 0 0 0 0 0 0 0 0 0 0 0 0 0 0 0 0 0 0
0 0 0 0 0 0 0 0 0 0 0 0 0 0 0 0 0 0 0 0 0 0 0 0 0 0 0 0 0 0 0 0 0 0 0 0 0 0 0 0 0 0 0
0 0 0 0 0 0 0 0 0 0 0 0 0 0 0 0 0 0 0 0 0 0 0 0 0 0 0 0 0 0 0 0 0 0 0 0 0 0 0 0 0 0 0
0 0 0 0 0 0 0 0 0 0 0 0 0 0 0 0 0 0 0 0 0 0 0 0 0 0 0 0 0 0 0 0 0 0 0 0 0 0 0 0 0 0 0
0 0 0 0 0 0 0 0 0 0 0 0 0 0 0 0 0 0 0 0 0 0 0 0 0 0 0 0 0 0 0 0 0 0 0 0 0 0 0 0 0 0 0
0 0 0 0 0 0 0 0 0 0 0 0 0 0 0 0 0 0 0 0 0 0 0 0 0 0 0 0 0 0 0 0 0 0 0 0 0 0 0 0 0 0 0
0 0 0 0 0 0 0 0 0 0 0 0 0 0 0 0 0 0 0 0 0 0 0 0 0 0 0 0 0 0 0 0 0 0 0 0 0 0 0 0 0 0 0
0 0 0 0 0 0 0 0 0 0 0 0 0 0 0 0 0 0 0 0 0 0 0 0 0 0 0 0 0 0 0 0 0 0 0 0 0 0 0 0 0 0 0
0 0 0 0 0 0 0 0 0 0 0 0 0 0 0 0 0 0 0 0 0 0 0 0 0 0 0 0 0 0 0 0 0 0 0 0 0 0 0 0 0 0 0
0 0 0 0 0 0 0 0 0 0 0 0 0 0 0 0 0 0 0 0 0 0 0 0 0 0 0 0 0 0 0 0 0 0 0 0 0 0 0 0 0 0 0
0 0 0 0 0 0 0 0 0 0 0 0 0 0 0 0 0 0 0 0 0 0 0 0 0 0 0 0 0 0 0 0 0 0 0 0 0 0 0 0 0 0 0
Wind_Speed
4 4 3 3 4 3 3 4 4 4 4 3 3 4 4 4 4 3 2 5 6 7 8 8 8 8 7 7 7 8 8 8 9 9 8 9 9 8 8 7 7 6 5
3 3 4 4 4 4 4 4 5 4 3 3 4 4 5 4 4 4 3 4 7 7 8 9 9 9 8 8 8 8 8 8 8 8 8 8 8 7 7 6 6 5 4
4 3 4 4 4 4 4 3 4 3 3 3 4 4 4 5 4 5 4 3 3 6 8 9 9 9 9 9 8 8 8 8 8 8 8 7 7 6 6 5 4 4 3
5 4 4 4 4 3 3 3 3 3 3 3 3 3 3 3 5 5 4 4 3 3 6 9 9 9 9 9 9 9 8 8 7 7 7 7 6 6 5 4 3 2 2
4 4 4 4 4 3 4 4 3 3 3 3 3 3 3 3 4 5 5 5 5 4 3 5 8 8 8 9 9 9 9 8 8 8 8 7 6 5 4 3 2 2 1
4 4 4 4 4 3 4 4 4 3 2 2 3 2 2 2 3 4 5 5 4 5 5 4 4 5 8 8 8 9 10 9 9 8 8 8 7 6 5 4 3 2 1
4 3 3 3 4 4 5 6 4 4 3 2 2 0 1 1 2 3 3 4 5 5 5 5 4 3 4 8 8 8 10 10 10 9 9 9 8 7 6 4 4 3 1
4 4 4 4 4 4 5 6 5 4 3 4 3 2 1 1 2 3 3 4 5 4 5 6 5 5 4 3 5 8 8 8 10 9 9 9 8 7 6 5 4 3 2
4 4 4 4 4 5 5 6 7 7 5 4 4 4 4 4 2 1 3 4 5 5 5 5 6 6 6 4 4 7 8 7 8 9 9 8 8 7 6 6 4 3 2
5 4 4 5 5 4 5 6 7 6 6 5 4 3 2 3 3 2 1 2 4 5 5 5 6 6 6 5 6 7 9 9 9 9 9 8 8 8 7 6 5 4 3
4 5 4 4 4 4 5 5 5 6 5 6 5 4 3 1 2 3 3 2 2 3 4 5 5 5 6 6 5 7 10 10 9 9 9 8 8 8 7 6 5 5 4
3 4 4 4 4 4 5 6 6 7 6 6 5 5 5 4 4 3 3 2 3 2 2 3 4 5 5 6 8 10 11 10 10 9 7 7 8 8 7 6 6 5 5
3 4 4 4 4 4 5 5 6 6 7 7 7 5 5 5 4 3 3 3 2 1 2 2 3 4 5 5 6 10 10 10 9 8 8 7 7 7 7 7 6 6 5
4 5 5 4 4 4 4 4 5 6 6 7 8 7 5 5 5 4 4 4 3 2 2 3 2 3 4 4 6 9 6 10 9 8 8 7 7 6 6 6 6 5 5
5 5 5 4 4 3 3 3 3 4 5 6 6 7 6 5 5 4 4 4 5 4 4 4 3 3 3 3 6 6 5 9 10 9 8 7 7 7 6 6 6 5 5
6 6 6 5 4 3 3 2 2 3 4 4 4 6 6 5 5 5 5 4 4 4 3 3 3 2 3 4 6 5 5 9 9 9 8 8 8 8 7 7 6 6 6
6 6 6 5 4 3 3 2 2 2 3 4 4 6 6 6 5 5 5 5 5 4 4 2 1 2 3 4 4 4 4 5 5 9 9 9 9 9 8 8 8 7 6
7 6 6 6 5 4 3 2 2 2 2 3 4 5 6 5 6 5 5 6 6 5 4 4 3 2 3 5 5 5 5 5 5 9 10 10 9 10 10 9 9 8 7
7 7 6 6 6 5 4 3 2 2 2 3 3 5 6 7 7 5 6 6 5 5 4 5 4 3 3 4 6 6 6 5 5 7 9 10 10 11 11 10 9 9 8
6 7 6 6 6 5 5 4 3 2 2 2 3 4 5 6 7 7 6 6 6 6 6 6 6 4 4 5 6 6 5 4 5 5 6 8 10 11 11 11 10 9 8
6 6 6 7 6 5 5 4 3 3 2 2 2 2 4 6 8 8 6 6 7 6 6 6 6 5 5 7 6 5 7 6 4 4 5 4 5 5 5 8 9 10 9
6 6 6 6 7 6 10 9 5 2 2 2 2 2 2 4 8 9 10 11 10 8 7 6 5 7 7 7 6 8 8 7 4 3 4 4 3 4 4 4 7 9 9
5 6 6 6 7 8 12 10 7 2 2 2 2 1 1 2 4 4 7 10 10 10 10 7 8 8 8 8 9 9 8 5 5 6 5 4 3 4 3 4 8 9 9
5 5 6 6 6 9 13 11 8 3 2 2 2 1 0 1 2 4 5 6 5 5 7 6 6 7 7 8 9 8 9 8 7 4 3 4 3 3 3 3 6 8 8
5 4 5 6 7 9 13 12 7 2 2 3 3 2 1 1 3 7 6 6 5 4 5 7 7 8 12 13 12 10 9 9 6 3 2 4 4 3 2 2 3 7 7
4 4 4 5 6 7 12 12 8 2 2 2 2 2 3 3 4 6 5 6 6 5 5 7 8 9 10 13 14 10 10 9 6 4 3 4 4 4 3 1 1 2 3
Wind_Direction
242 229 230 222 223 216 212 211 205 207 209 211 215 221 228 228 226 218 227 233 218 205 196 186 177 171 167 161 155 148 142 138 134 132 130 128 127 124 119 116 112 107 100
260 239 236 231 228 220 212 209 203 203 208 205 219 223 227 223 221 213 210 227 220 207 201 194 186 181 176 170 165 157 151 147 142 138 135 134 133 130 127 122 114 109 100
254 249 238 231 227 222 212 203 202 195 205 209 221 226 226 219 212 210 205 202 208 211 204 201 194 189 184 179 175 167 159 153 150 148 145 140 137 135 133 130 124 116 100
256 243 238 235 224 211 204 198 197 197 209 211 217 224 222 212 211 207 200 193 188 194 205 204 196 195 191 186 182 173 166 162 161 159 153 149 146 142 139 136 135 127 102
262 251 240 233 220 208 203 210 197 190 201 213 219 221 218 213 207 204 199 195 188 182 185 205 199 197 196 194 190 182 177 175 174 171 165 160 157 155 152 149 148 142 107
267 255 248 235 218 212 209 204 200 190 195 202 230 234 230 225 205 201 202 195 188 188 184 187 192 202 201 199 199 196 191 188 186 184 181 176 171 168 169 171 174 177 185
277 259 256 240 217 216 217 204 193 191 193 165 136 103 324 270 224 215 198 190 195 194 183 187 184 184 200 205 203 204 202 196 195 193 192 185 179 180 182 188 191 198 197
283 271 249 243 228 221 220 208 191 179 187 172 158 140 188 299 269 223 198 201 202 187 194 197 188 187 186 186 203 208 209 204 203 201 198 193 187 186 189 193 194 194 191
289 273 260 244 233 223 223 214 200 188 186 185 178 162 168 201 215 250 218 207 193 191 199 190 194 192 189 186 190 209 209 207 210 208 202 195 188 188 190 189 192 189 186
292 283 267 249 236 226 226 222 209 201 183 185 185 189 178 161 163 191 265 221 199 198 197 198 199 195 190 188 193 196 203 204 210 213 207 197 192 193 190 193 197 194 188
295 293 280 259 243 233 229 224 212 204 196 188 175 166 170 167 175 161 188 200 200 208 197 197 193 191 193 192 191 199 201 202 207 213 211 200 194 190 190 193 197 195 189
299 303 298 277 255 242 235 225 214 208 206 198 186 171 167 168 184 175 173 179 192 205 193 192 194 193 191 192 199 199 199 198 201 203 205 199 194 191 190 189 195 192 183
310 309 304 294 275 254 242 229 218 213 207 201 195 192 186 185 168 166 161 158 164 184 186 200 201 193 194 189 196 194 197 193 195 196 197 192 187 188 190 193 191 184 181
305 311 306 295 288 279 260 234 222 218 210 208 205 196 191 191 183 176 170 156 153 179 210 214 191 197 193 186 192 188 190 190 189 190 187 185 183 180 176 178 174 170 167
321 324 320 311 299 296 288 256 232 223 212 210 206 200 196 191 189 187 176 169 163 177 208 206 198 190 182 176 179 181 178 182 182 183 180 175 173 167 160 153 147 139 131
335 333 331 325 317 305 295 274 251 236 216 211 203 199 199 190 189 192 190 185 176 171 184 188 189 165 169 165 167 167 171 169 173 168 165 160 157 150 145 141 134 125 119
339 341 339 340 336 332 323 293 266 240 223 218 210 202 202 189 186 192 189 185 182 167 170 159 151 133 139 141 134 137 135 140 148 154 150 148 147 142 137 132 128 124 121
341 341 342 347 346 343 337 327 299 269 233 223 214 205 201 191 189 189 189 190 185 176 163 161 157 149 142 139 133 132 128 128 124 134 137 137 137 134 130 128 126 122 116
342 345 347 347 344 340 337 335 324 292 253 239 224 214 205 190 191 189 186 186 184 179 162 157 158 148 137 133 125 117 114 110 113 119 123 123 125 124 124 122 119 117 113
342 344 343 344 340 335 333 333 333 324 298 268 242 224 208 194 190 185 185 183 179 173 164 159 155 149 144 138 135 133 126 111 111 108 105 108 112 113 117 119 120 118 114
344 342 345 346 343 339 338 336 328 326 320 312 286 245 218 199 195 189 184 180 175 171 165 163 159 155 157 157 153 143 136 123 98 106 107 100 104 101 104 113 117 119 118
343 349 350 344 344 342 340 342 337 323 323 316 301 279 233 206 201 198 191 184 178 174 170 167 167 170 167 158 145 146 143 142 134 131 113 99 97 100 95 100 113 119 121
344 347 345 345 342 336 343 349 354 345 334 323 306 303 267 203 183 177 182 179 182 181 175 166 168 173 168 164 155 154 154 142 127 141 121 104 93 93 80 100 116 119 122
339 339 340 341 339 342 350 353 357 358 354 349 341 309 274 228 183 157 152 152 155 164 170 170 173 174 165 159 157 150 138 115 101 105 106 115 117 98 82 72 103 112 114
336 336 336 344 345 341 350 354 359 347 358 5 0 4 49 132 160 139 136 133 129 129 135 145 152 155 153 150 144 136 137 137 132 132 110 117 128 111 88 62 71 92 101
322 329 339 344 345 341 346 352 359 352 6 3 3 19 43 66 100 119 131 134 133 127 125 124 125 132 141 147 149 152 152 148 136 141 151 126 136 134 124 98 71 72 83